(49725) = 1999 VD67 = 2001 HA28

Discovered at Socorro on 1999-11-04 by LINEAR.

Orbit

Orbit type: Main Belt

Note: WebGL enabled browser required.

epoch2024-03-31.0
epoch JD2460400.5
perihelion date2021-04-06.42515
perihelion JD2459310.92515
argument of perihelion (°)68.66245
ascending node (°)86.14509
inclination (°)2.19347
eccentricity0.0956978
perihelion distance (AU)2.0527469
Tisserand w.r.t. Jupiter3.6
ΔV w.r.t. Earth (km/sec)8.9
semimajor axis (AU)2.2699789
mean anomaly (°)313.99894
mean daily motion (°/day)0.28818480
aphelion distance (AU)2.487
period (years)3.42
P-vector [x]-0.90420217
P-vector [y]0.37631256
P-vector [z]0.20200813
Q-vector [x]-0.42539412
Q-vector [y]-0.83577007
Q-vector [z]-0.34717175
absolute magnitude16.36
phase slope0.15
uncertainty0
referenceMPEC 2024-E152
observations used1143
oppositions17
arc length (days)9925
first opposition used1997
last opposition used2024
residual rms (arc-secs)0.63
perturbers coarse indicatorM-v
perturbers precise indicator003Ek
first observation date used1997-01-06.0
last observation date used2024-03-10.0
computer nameMPCLINUX
JD of orbit computation2456731.599003
perihelion JD uncertainty (days)7.7419E-05
argument of perihelion uncertainty (°)1.0707E-04
ascending node uncertainty (°)1.0434E-04
inclination uncertainty (°)3.4605E-06
eccentricity uncertainty 3.8485E-08
perihelion distance uncertainty (AU)8.7199E-08
Minimum Orbit Intersection Distances (in AU)
for orbit epoch: 2460400.5, reference: E2024-EF2
Mercury1.67564
Venus1.33419
Earth1.06423
Mars0.38712
Jupiter2.49207
Saturn6.8288
Uranus16.3833
Neptune27.4118

Observations

1155 total observations over interval: 1997 01 06.28814 – 2024 03 10.54405
These data are available for download (format description).

Date (UT) J2000 RA J2000 Dec Magn Location Ref
1997 01 06.28814 08 32 50.90 +20 54 04.4 18.6 V 691 – Steward Observatory, Kitt Peak-Spacewatch MPS 29958
1997 01 06.31772 08 32 49.33 +20 54 12.5 18.9 V 691 – Steward Observatory, Kitt Peak-Spacewatch MPS 29958
1997 01 06.34023 08 32 48.12 +20 54 19.4 19.1 V 691 – Steward Observatory, Kitt Peak-Spacewatch MPS 29958
1999 10 08.43690 03 51 51.54 +17 46 18.3 19.0 V 691 – Steward Observatory, Kitt Peak-Spacewatch MPS 13981
1999 10 08.45885 03 51 51.22 +17 46 17.5 19.0 V 691 – Steward Observatory, Kitt Peak-Spacewatch MPS 13981
1999 10 08.48179 03 51 50.83 +17 46 16.5 19.4 V 691 – Steward Observatory, Kitt Peak-Spacewatch MPS 13981
1999 10 14.43446 03 49 49.37 +17 39 25.9 19.8 V 691 – Steward Observatory, Kitt Peak-Spacewatch MPS 13981
1999 10 14.46168 03 49 48.59 +17 39 23.4 19.9 V 691 – Steward Observatory, Kitt Peak-Spacewatch MPS 13981
1999 10 14.50469 03 49 47.38 +17 39 19.6 20.1 V 691 – Steward Observatory, Kitt Peak-Spacewatch MPS 13981
1999 10 16.40390 03 48 53.88 +17 36 29.8 19.9 V 691 – Steward Observatory, Kitt Peak-Spacewatch MPS 9969
1999 10 16.43273 03 48 52.95 +17 36 27.2 19.9 V 691 – Steward Observatory, Kitt Peak-Spacewatch MPS 9969
1999 10 16.45993 03 48 52.05 +17 36 24.5 20.0 V 691 – Steward Observatory, Kitt Peak-Spacewatch MPS 9969
1999 11 04.32602 03 34 16.08 +16 53 01.9 18.8   704 – Lincoln Laboratory ETS, New Mexico MPS 7507
1999 11 04.34212 03 34 15.11 +16 52 58.2 19.4   704 – Lincoln Laboratory ETS, New Mexico MPS 7507
1999 11 04.35829 03 34 14.03 +16 52 56.8 19.4   704 – Lincoln Laboratory ETS, New Mexico MPS 7507
1999 11 04.39043 03 34 12.08 +16 52 50.8 19.6   704 – Lincoln Laboratory ETS, New Mexico MPS 7507
1999 11 04.43968 03 34 08.98 +16 52 41.9 19.2 V 691 – Steward Observatory, Kitt Peak-Spacewatch MPS 16620
1999 11 04.46586 03 34 07.37 +16 52 37.3 19.5 V 691 – Steward Observatory, Kitt Peak-Spacewatch MPS 16621
1999 11 04.49966 03 34 05.29 +16 52 31.3 19.1 V 691 – Steward Observatory, Kitt Peak-Spacewatch MPS 16621
1999 11 12.29289 03 25 51.91 +16 28 31.2 19.5   704 – Lincoln Laboratory ETS, New Mexico MPS 7507
1999 11 12.30724 03 25 50.92 +16 28 27.9 19.7   704 – Lincoln Laboratory ETS, New Mexico MPS 7507
1999 11 12.32171 03 25 49.91 +16 28 25.4 19.6   704 – Lincoln Laboratory ETS, New Mexico MPS 7507
1999 11 12.33601 03 25 49.00 +16 28 22.7 19.5   704 – Lincoln Laboratory ETS, New Mexico MPS 7507
1999 11 17.19847 03 20 27.75 +16 12 50.8 18.4   704 – Lincoln Laboratory ETS, New Mexico MPS 8728
1999 11 17.21404 03 20 26.66 +16 12 47.6 18.9   704 – Lincoln Laboratory ETS, New Mexico MPS 8728
1999 11 17.22965 03 20 25.57 +16 12 44.4 19.0   704 – Lincoln Laboratory ETS, New Mexico MPS 8728
1999 11 17.24524 03 20 24.52 +16 12 41.5 19.2   704 – Lincoln Laboratory ETS, New Mexico MPS 8728
1999 11 17.26078 03 20 23.49 +16 12 38.6 19.0   704 – Lincoln Laboratory ETS, New Mexico MPS 8728
1999 12 07.21743 03 00 38.82 +15 18 37.8 19.3   704 – Lincoln Laboratory ETS, New Mexico MPS 9969
1999 12 07.23200 03 00 38.17 +15 18 36.7 19.8   704 – Lincoln Laboratory ETS, New Mexico MPS 9969
1999 12 07.24655 03 00 37.42 +15 18 35.1 20.1   704 – Lincoln Laboratory ETS, New Mexico MPS 9969
1999 12 07.27567 03 00 36.00 +15 18 31.0 19.8   704 – Lincoln Laboratory ETS, New Mexico MPS 9969
1999 12 17.08042 02 54 18.70 +15 06 04.4 19.9 V 691 – Steward Observatory, Kitt Peak-Spacewatch MPS 16621
1999 12 17.10315 02 54 17.99 +15 06 03.5 19.6 V 691 – Steward Observatory, Kitt Peak-Spacewatch MPS 16621
1999 12 17.12508 02 54 17.32 +15 06 02.9 19.8 V 691 – Steward Observatory, Kitt Peak-Spacewatch MPS 16621
2001 04 26.31026 15 27 37.90 -16 09 47.2 18.7 R 699 – Lowell Observatory-LONEOS MPS 30349
2001 04 26.32898 15 27 36.82 -16 09 43.2   699 – Lowell Observatory-LONEOS MPS 30349
2001 04 26.34775 15 27 35.70 -16 09 40.6   699 – Lowell Observatory-LONEOS MPS 30349
2001 04 26.36653 15 27 34.67 -16 09 38.6   699 – Lowell Observatory-LONEOS MPS 30349
2001 04 27.31281 15 26 42.54 -16 07 02.1 18.6   704 – Lincoln Laboratory ETS, New Mexico MPS 30349
2001 04 27.32686 15 26 41.79 -16 06 59.4 18.8   704 – Lincoln Laboratory ETS, New Mexico MPS 30349
2001 04 27.34003 15 26 41.02 -16 06 56.6 18.8   704 – Lincoln Laboratory ETS, New Mexico MPS 30349
2001 04 27.35329 15 26 40.25 -16 06 54.5 18.9   704 – Lincoln Laboratory ETS, New Mexico MPS 30349
2001 04 27.36671 15 26 39.43 -16 06 53.0 19.1   704 – Lincoln Laboratory ETS, New Mexico MPS 30349
2001 04 29.33051 15 24 48.32 -16 01 18.3 18.9   704 – Lincoln Laboratory ETS, New Mexico MPS 30349
2001 04 29.34415 15 24 47.49 -16 01 15.4 19.1   704 – Lincoln Laboratory ETS, New Mexico MPS 30349
2001 04 29.37148 15 24 45.85 -16 01 10.8 18.9   704 – Lincoln Laboratory ETS, New Mexico MPS 30349
2001 04 30.34609 15 23 49.24 -15 58 22.1 18.1   704 – Lincoln Laboratory ETS, New Mexico MPS 30349
2001 04 30.35963 15 23 48.47 -15 58 19.2 18.0   704 – Lincoln Laboratory ETS, New Mexico MPS 30349
2001 04 30.38673 15 23 46.89 -15 58 15.0 19.1   704 – Lincoln Laboratory ETS, New Mexico MPS 30349
2001 04 30.40068 15 23 46.02 -15 58 12.2 18.8   704 – Lincoln Laboratory ETS, New Mexico MPS 30349
2001 05 15.23742 15 08 34.24 -15 13 54.5 18.3 R 699 – Lowell Observatory-LONEOS MPS 30906
2001 05 15.26549 15 08 32.37 -15 13 50.1   699 – Lowell Observatory-LONEOS MPS 30906
2001 05 15.29363 15 08 30.65 -15 13 45.1   699 – Lowell Observatory-LONEOS MPS 30906
2001 05 15.32188 15 08 28.86 -15 13 40.3   699 – Lowell Observatory-LONEOS MPS 30906
2001 05 17.27175 15 06 30.60 -15 08 08.1 18.1   704 – Lincoln Laboratory ETS, New Mexico MPS 30906
2001 05 17.28368 15 06 29.75 -15 08 06.5 18.7   704 – Lincoln Laboratory ETS, New Mexico MPS 30906
2001 05 17.29552 15 06 29.07 -15 08 03.8 18.3   704 – Lincoln Laboratory ETS, New Mexico MPS 30906
2001 05 17.30735 15 06 28.34 -15 08 01.4 18.2   704 – Lincoln Laboratory ETS, New Mexico MPS 30906
2001 05 17.31914 15 06 27.54 -15 08 00.6 19.0   704 – Lincoln Laboratory ETS, New Mexico MPS 30906
2001 05 22.40996 15 01 32.07 -14 54 34.4 20.1   608 – Haleakala-AMOS MPS 30906
2001 05 22.42046 15 01 31.52 -14 54 32.4 20.0   608 – Haleakala-AMOS MPS 30906
2001 05 22.43073 15 01 30.94 -14 54 32.0 20.1   608 – Haleakala-AMOS MPS 30906
2001 05 24.22636 14 59 52.65 -14 50 14.2 19.5   704 – Lincoln Laboratory ETS, New Mexico MPS 31297
2001 05 24.24969 14 59 51.31 -14 50 11.4 19.4   704 – Lincoln Laboratory ETS, New Mexico MPS 31297
2001 05 24.26133 14 59 50.73 -14 50 09.1 19.4   704 – Lincoln Laboratory ETS, New Mexico MPS 31297
2001 05 24.28936 14 59 49.22 -14 50 07.9 18.8   704 – Lincoln Laboratory ETS, New Mexico MPS 31297
2001 05 24.30122 14 59 48.44 -14 50 04.9 19.0   704 – Lincoln Laboratory ETS, New Mexico MPS 31297
2001 05 24.31307 14 59 47.82 -14 50 03.5 18.6   704 – Lincoln Laboratory ETS, New Mexico MPS 31297
2001 05 24.32495 14 59 47.22 -14 50 02.3 18.4   704 – Lincoln Laboratory ETS, New Mexico MPS 31297
2001 05 28.33188 14 56 23.06 -14 41 31.6 19.7   608 – Haleakala-AMOS MPS 31297
2001 05 28.34258 14 56 22.50 -14 41 30.4 20.0   608 – Haleakala-AMOS MPS 31297
2001 05 28.35295 14 56 22.00 -14 41 29.0 19.5   608 – Haleakala-AMOS MPS 31297
2002 09 15.48935 00 07 16.08 -03 13 54.3 18.9   644 – Palomar Mountain/NEAT MPS 60857
2002 09 15.50011 00 07 15.47 -03 13 58.2 19.1   644 – Palomar Mountain/NEAT MPS 60857
2002 09 15.51078 00 07 14.86 -03 14 02.4 19.2   644 – Palomar Mountain/NEAT MPS 60857
2002 09 16.31143 00 06 30.72 -03 19 04.1 20.6   608 – Haleakala-AMOS MPS 62718
2002 09 16.32224 00 06 30.07 -03 19 07.9 20.4   608 – Haleakala-AMOS MPS 62718
2002 09 16.33361 00 06 29.44 -03 19 12.6 21.0   608 – Haleakala-AMOS MPS 62719
2002 09 28.39488 23 54 58.33 -04 33 05.1 21.0   608 – Haleakala-AMOS MPS 62719
2002 09 28.40555 23 54 57.67 -04 33 09.3 20.5   608 – Haleakala-AMOS MPS 62719
2002 09 28.41613 23 54 57.02 -04 33 13.1 20.6   608 – Haleakala-AMOS MPS 62719
2002 10 03.24373 23 50 28.51 -04 59 52.1 18.9   704 – Lincoln Laboratory ETS, New Mexico MPS 62719
2002 10 03.25899 23 50 27.61 -04 59 57.4 19.3   704 – Lincoln Laboratory ETS, New Mexico MPS 62719
2002 10 03.27401 23 50 26.79 -05 00 03.1 19.6   704 – Lincoln Laboratory ETS, New Mexico MPS 62719
